current

24-hour

48-hour

Mouse Over Maps to Enlarge or pause. Click here for the Kentucky Ag Weather Synopsis Webcast
Mouseover to pause! Click here to zoom!

Kentucky Weather Forecast

Western KY:
Central KY:
Eastern KY:

Specific and detailed farm-by-farm weather forecast information is available in your Point Ag Forecast. New County Ag Weather Page, Current Conditions:Kentucky
, U.S. Mouseover to pause! Click here to zoom!
Mouseover to pause!

882 
ASUS43 KLMK 230910
RWRKY 
KENTUCKY REGIONAL WEATHER ROUNDUP
NATIONAL WEATHER SERVICE LOUISVILLE KY
500 AM EDT THU MAY 23 2019

NOTE "FAIR" INDICATES FEW OR NO CLOUDS BELOW 12,000 FEET
WITH NO SIGNIFICANT WEATHER AND/OR OBSTRUCTIONS TO VISIBILITY.

KYZ001>023-026-027-061>063-070>075-231000-
WESTERN AND SOUTH CENTRAL KENTUCKY
  
CITY           SKY/WX    TMP DP  RH WIND       PRES   REMARKS
PADUCAH        MOCLDY    77  68  73 S7        30.04R                  
HENDERSON      FAIR      73  68  84 S8        30.04R                  
OWENSBORO      FAIR      73  67  81 S7        30.06R                  
HOPKINSVILLE   FAIR      74  66  75 S6        30.08R                  
BOWLING GREEN  FAIR      72  57  59 S5        30.10R                  
GLASGOW        FAIR      70  56  62 CALM      30.11R                  
$$

KYZ024-025-028>034-038-045-046-053-231000-
NORTH CENTRAL KENTUCKY
  
CITY           SKY/WX    TMP DP  RH WIND       PRES   REMARKS
LOUISVILLE/SDF CLOUDY    77  62  59 SW10      30.07R                  
LOUISVILLE/LOU FAIR      75  61  61 SW6       30.07R                  
FORT KNOX      FAIR      69  62  79 S7        30.09R                  
$$

KYZ035>037-039>044-047>052-055>060-089>105-231000-
NORTHEAST KENTUCKY
  
CITY           SKY/WX    TMP DP  RH WIND       PRES   REMARKS
LEXINGTON      FAIR      70  58  65 S8        30.11R                  
COVINGTON      CLOUDY    69  65  86 S7        30.06S                  
FRANKFORT      FAIR      71  60  68 S5        30.08R                  
$$

KYZ054-064>069-076>088-106>120-231000-
SOUTHEAST KENTUCKY
  
CITY           SKY/WX    TMP DP  RH WIND       PRES   REMARKS
JACKSON        FAIR      69  60  73 CALM      30.16R                  
LONDON         FAIR      63  60  90 CALM      30.16R                  
SOMERSET       FAIR      66  59  77 S3        30.16R                  
MIDDLESBORO    FAIR      61  61 100 CALM      30.19R                  
MONTICELLO     FAIR      62  60  93 CALM      30.17R                  
$$

  


 Mouseover to pause! Click here  to zoom!


Mouseover to pause!...... Western KY .TODAY...Partly sunny. A 20 percent chance of showers and thunderstorms. Highs in the upper 80s. Southwest winds around 10 mph. Central KY .TODAY...Partly cloudy with a 50 percent chance of showers and thunderstorms. Highs in the mid 80s. South winds 10 to 15 mph with gusts to around 30 mph. Eastern KY .TODAY...Warm. Partly sunny. Patchy valley fog early. A 20 percent chance of showers and thunderstorms in the afternoon. Highs in the upper 80s. Southwest winds around 10 mph.